| time (UTC) | temp F | wind direction | speed MPH | gust MPH | rain 1hr in | rain 24hr in | rain mn in | humidity % | barometer mb |
| 20260508233746 | 68 | 248 | 8.0 | 9.0 | 0.00 | 0.00 | 0.00 | 19 | 1020.8 |
| 20260508233245 | 68 | 164 | 8.0 | 9.0 | 0.00 | 0.00 | 0.00 | 19 | 1021.0 |
| 20260508232742 | 68 | 242 | 4.0 | 5.0 | 0.00 | 0.00 | 0.00 | 22 | 1020.7 |
| 20260508232238 | 68 | 249 | 3.0 | 3.0 | 0.00 | 0.00 | 0.00 | 26 | 1020.8 |
| 20260508231736 | 68 | 262 | 7.0 | 9.0 | 0.00 | 0.00 | 0.00 | 26 | 1020.6 |
| 20260508231232 | 69 | 237 | 6.0 | 7.0 | 0.00 | 0.00 | 0.00 | 27 | 1020.5 |
| 20260508230729 | 69 | 222 | 3.0 | 3.0 | 0.00 | 0.00 | 0.00 | 30 | 1020.6 |
| 20260508230225 | 69 | 214 | 3.0 | 3.0 | 0.00 | 0.00 | 0.00 | 31 | 1020.6 |
| 20260508225724 | 69 | 257 | 3.0 | 5.0 | 0.00 | 0.00 | 0.00 | 31 | 1020.6 |
| 20260508225220 | 70 | 268 | 7.0 | 8.0 | 0.00 | 0.00 | 0.00 | 32 | 1020.5 |
| 20260508224718 | 70 | 256 | 9.0 | 9.0 | 0.00 | 0.00 | 0.00 | 31 | 1020.6 |
| 20260508224215 | 70 | 276 | 4.0 | 6.0 | 0.00 | 0.00 | 0.00 | 34 | 1020.4 |
| 20260508223712 | 70 | 270 | 5.0 | 7.0 | 0.00 | 0.00 | 0.00 | 32 | 1020.2 |
| 20260508223210 | 71 | 279 | 9.0 | 10.0 | 0.00 | 0.00 | 0.00 | 33 | 1020.5 |
| 20260508222707 | 72 | 292 | 5.0 | 6.0 | 0.00 | 0.00 | 0.00 | 36 | 1020.2 |
| 20260508222204 | 71 | 216 | 0.0 | 0.0 | 0.00 | 0.00 | 0.00 | 35 | 1020.2 |
| 20260508221700 | 72 | 178 | 4.0 | 5.0 | 0.00 | 0.00 | 0.00 | 37 | 1020.4 |
| 20260508221156 | 72 | 259 | 0.0 | 1.0 | 0.00 | 0.00 | 0.00 | 34 | 1020.0 |
| 20260508220653 | 72 | 225 | 0.0 | 0.0 | 0.00 | 0.00 | 0.00 | 33 | 1020.2 |
| 20260508220149 | 72 | 30 | 2.0 | 2.0 | 0.00 | 0.00 | 0.00 | 36 | 1020.4 |
| 20260508215646 | 72 | 339 | 5.0 | 6.0 | 0.00 | 0.00 | 0.00 | 33 | 1020.4 |
| 20260508215143 | 72 | 179 | 4.0 | 5.0 | 0.00 | 0.00 | 0.00 | 35 | 1020.2 |
| 20260508214640 | 72 | 169 | 3.0 | 5.0 | 0.00 | 0.00 | 0.00 | 37 | 1020.4 |
| 20260508214137 | 72 | 225 | 3.0 | 3.0 | 0.00 | 0.00 | 0.00 | 40 | 1020.2 |
| 20260508213633 | 72 | 151 | 5.0 | 5.0 | 0.00 | 0.00 | 0.00 | 36 | 1020.1 |
| 20260508213130 | 73 | 124 | 7.0 | 8.0 | 0.00 | 0.00 | 0.00 | 37 | 1020.5 |
| 20260508212626 | 73 | 209 | 1.0 | 1.0 | 0.00 | 0.00 | 0.00 | 38 | 1020.2 |
| 20260508212123 | 72 | 173 | 3.0 | 5.0 | 0.00 | 0.00 | 0.00 | 38 | 1020.4 |
| 20260508211618 | 72 | 167 | 7.0 | 9.0 | 0.00 | 0.00 | 0.00 | 42 | 1020.6 |
| 20260508211115 | 71 | 156 | 5.0 | 6.0 | 0.00 | 0.00 | 0.00 | 41 | 1020.6 |
| 20260508210611 | 72 | 147 | 1.0 | 2.0 | 0.00 | 0.00 | 0.00 | 41 | 1020.5 |
| 20260508210109 | 72 | 216 | 1.0 | 1.0 | 0.00 | 0.00 | 0.00 | 39 | 1020.5 |
| 20260508205606 | 72 | 181 | 8.0 | 9.0 | 0.00 | 0.00 | 0.00 | 42 | 1020.6 |
| 20260508205102 | 71 | 190 | 4.0 | 5.0 | 0.00 | 0.00 | 0.00 | 41 | 1020.5 |
| 20260508204559 | 71 | 231 | 4.0 | 5.0 | 0.00 | 0.00 | 0.00 | 40 | 1020.7 |
| 20260508204055 | 71 | 179 | 7.0 | 8.0 | 0.00 | 0.00 | 0.00 | 42 | 1020.7 |
| 20260508203551 | 71 | 184 | 8.0 | 9.0 | 0.00 | 0.00 | 0.00 | 42 | 1020.6 |
| 20260508203047 | 70 | 141 | 5.0 | 7.0 | 0.00 | 0.00 | 0.00 | 41 | 1020.7 |
| 20260508202544 | 71 | 145 | 3.0 | 5.0 | 0.00 | 0.00 | 0.00 | 41 | 1020.6 |
| 20260508202041 | 71 | 204 | 9.0 | 10.0 | 0.00 | 0.00 | 0.00 | 44 | 1020.8 |
| 20260508201538 | 71 | 161 | 3.0 | 3.0 | 0.00 | 0.00 | 0.00 | 43 | 1020.9 |
| 20260508201034 | 70 | 278 | 2.0 | 3.0 | 0.00 | 0.00 | 0.00 | 41 | 1020.9 |
| 20260508200531 | 70 | 176 | 5.0 | 6.0 | 0.00 | 0.00 | 0.00 | 44 | 1020.9 |
| 20260508200027 | 70 | 178 | 6.0 | 7.0 | 0.00 | 0.00 | 0.00 | 43 | 1020.8 |
| 20260508195524 | 70 | 193 | 2.0 | 2.0 | 0.00 | 0.00 | 0.00 | 42 | 1020.9 |
| 20260508195020 | 69 | 143 | 2.0 | 3.0 | 0.00 | 0.00 | 0.00 | 42 | 1021.2 |
| 20260508194517 | 69 | 225 | 0.0 | 0.0 | 0.00 | 0.00 | 0.00 | 45 | 1021.1 |
| 20260508194014 | 70 | 265 | 3.0 | 3.0 | 0.00 | 0.00 | 0.00 | 42 | 1021.1 |
| 20260508193510 | 69 | 223 | 0.0 | 1.0 | 0.00 | 0.00 | 0.00 | 43 | 1021.1 |
| 20260508193008 | 69 | 127 | 4.0 | 5.0 | 0.00 | 0.00 | 0.00 | 43 | 1021.1 |
| 20260508192504 | 69 | 150 | 4.0 | 6.0 | 0.00 | 0.00 | 0.00 | 44 | 1021.1 |
| 20260508192001 | 68 | 233 | 0.0 | 0.0 | 0.00 | 0.00 | 0.00 | 45 | 1021.3 |
| 20260508191458 | 69 | 235 | 1.0 | 2.0 | 0.00 | 0.00 | 0.00 | 46 | 1021.2 |
| 20260508190954 | 69 | 241 | 0.0 | 0.0 | 0.00 | 0.00 | 0.00 | 46 | 1021.5 |
| 20260508190447 | 69 | 245 | 2.0 | 3.0 | 0.00 | 0.00 | 0.00 | 43 | 1021.3 |
| 20260508185942 | 68 | 177 | 0.0 | 1.0 | 0.00 | 0.00 | 0.00 | 44 | 1021.6 |
| 20260508185440 | 68 | 180 | 1.0 | 1.0 | 0.00 | 0.00 | 0.00 | 44 | 1021.7 |
| 20260508184937 | 68 | 113 | 2.0 | 2.0 | 0.00 | 0.00 | 0.00 | 45 | 1021.6 |
| 20260508184435 | 68 | 194 | 1.0 | 2.0 | 0.00 | 0.00 | 0.00 | 44 | 1021.8 |
| 20260508183931 | 68 | 193 | 4.0 | 5.0 | 0.00 | 0.00 | 0.00 | 44 | 1022.1 |
| 20260508183428 | 69 | 136 | 3.0 | 3.0 | 0.00 | 0.00 | 0.00 | 46 | 1022.0 |
| 20260508182923 | 68 | 202 | 1.0 | 1.0 | 0.00 | 0.00 | 0.00 | 45 | 1021.9 |
| 20260508182421 | 67 | 155 | 2.0 | 2.0 | 0.00 | 0.00 | 0.00 | 46 | 1022.0 |
| 20260508181920 | 67 | 229 | 0.0 | 0.0 | 0.00 | 0.00 | 0.00 | 47 | 1021.9 |
| 20260508181418 | 66 | 274 | 1.0 | 2.0 | 0.00 | 0.00 | 0.00 | 51 | 1022.2 |
| 20260508180915 | 66 | 180 | 3.0 | 3.0 | 0.00 | 0.00 | 0.00 | 48 | 1022.2 |
| 20260508180412 | 66 | 230 | 2.0 | 3.0 | 0.00 | 0.00 | 0.00 | 47 | 1022.3 |
| 20260508175908 | 66 | 212 | 0.0 | 1.0 | 0.00 | 0.00 | 0.00 | 49 | 1022.1 |
| 20260508175405 | 65 | 221 | 0.0 | 1.0 | 0.00 | 0.00 | 0.00 | 50 | 1022.7 |
| 20260508174903 | 65 | 292 | 3.0 | 5.0 | 0.00 | 0.00 | 0.00 | 51 | 1022.3 |
| 20260508174400 | 66 | 235 | 3.0 | 3.0 | 0.00 | 0.00 | 0.00 | 48 | 1022.6 |
| 20260508173856 | 64 | 260 | 1.0 | 1.0 | 0.00 | 0.00 | 0.00 | 50 | 1022.6 |
| 20260508173354 | 65 | 240 | 2.0 | 3.0 | 0.00 | 0.00 | 0.00 | 50 | 1022.8 |
| 20260508172849 | 65 | 259 | 0.0 | 1.0 | 0.00 | 0.00 | 0.00 | 48 | 1022.8 |
| 20260508172347 | 66 | 270 | 0.0 | 1.0 | 0.00 | 0.00 | 0.00 | 47 | 1022.9 |
| 20260508171843 | 66 | 103 | 1.0 | 2.0 | 0.00 | 0.00 | 0.00 | 47 | 1023.0 |
| 20260508171339 | 66 | 195 | 0.0 | 1.0 | 0.00 | 0.00 | 0.00 | 47 | 1022.8 |
| 20260508170836 | 64 | 347 | 2.0 | 2.0 | 0.00 | 0.00 | 0.00 | 49 | 1022.8 |
| 20260508170334 | 63 | 146 | 5.0 | 6.0 | 0.00 | 0.00 | 0.00 | 48 | 1023.0 |
| 20260508165830 | 62 | 195 | 3.0 | 3.0 | 0.00 | 0.00 | 0.00 | 51 | 1022.9 |
| 20260508165328 | 62 | 84 | 0.0 | 0.0 | 0.00 | 0.00 | 0.00 | 51 | 1023.1 |
| 20260508164824 | 63 | 182 | 4.0 | 5.0 | 0.00 | 0.00 | 0.00 | 52 | 1023.1 |
| 20260508164321 | 62 | 206 | 0.0 | 0.0 | 0.00 | 0.00 | 0.00 | 51 | 1023.1 |
| 20260508163819 | 62 | 225 | 0.0 | 0.0 | 0.00 | 0.00 | 0.00 | 53 | 1023.2 |
| 20260508163316 | 61 | 214 | 0.0 | 0.0 | 0.00 | 0.00 | 0.00 | 54 | 1023.2 |
| 20260508162812 | 61 | 187 | 1.0 | 1.0 | 0.00 | 0.00 | 0.00 | 53 | 1023.3 |
| 20260508162309 | 62 | 203 | 0.0 | 1.0 | 0.00 | 0.00 | 0.00 | 54 | 1023.6 |
| 20260508161806 | 60 | 138 | 0.0 | 0.0 | 0.00 | 0.00 | 0.00 | 56 | 1023.4 |
| 20260508161303 | 60 | 166 | 2.0 | 2.0 | 0.00 | 0.00 | 0.00 | 58 | 1023.4 |
| 20260508160800 | 59 | 223 | 0.0 | 0.0 | 0.00 | 0.00 | 0.00 | 57 | 1023.3 |
| 20260508160259 | 58 | 216 | 2.0 | 2.0 | 0.00 | 0.00 | 0.00 | 59 | 1023.3 |
| 20260508155755 | 57 | 255 | 3.0 | 5.0 | 0.00 | 0.00 | 0.00 | 59 | 1023.4 |
| 20260508155252 | 57 | 206 | 2.0 | 5.0 | 0.00 | 0.00 | 0.00 | 60 | 1023.7 |
| 20260508154749 | 57 | 256 | 1.0 | 1.0 | 0.00 | 0.00 | 0.00 | 60 | 1023.7 |
| 20260508154247 | 57 | 215 | 0.0 | 0.0 | 0.00 | 0.00 | 0.00 | 61 | 1023.9 |
| 20260508153743 | 57 | 195 | 0.0 | 0.0 | 0.00 | 0.00 | 0.00 | 63 | 1023.7 |
| 20260508153240 | 55 | 238 | 0.0 | 0.0 | 0.00 | 0.00 | 0.00 | 61 | 1023.8 |
| 20260508152736 | 55 | 201 | 2.0 | 2.0 | 0.00 | 0.00 | 0.00 | 64 | 1023.8 |
| 20260508152233 | 55 | 212 | 0.0 | 0.0 | 0.00 | 0.00 | 0.00 | 65 | 1023.9 |
| 20260508151729 | 54 | 214 | 1.0 | 1.0 | 0.00 | 0.00 | 0.00 | 63 | 1023.8 |
| 20260508151226 | 53 | 173 | 0.0 | 1.0 | 0.00 | 0.00 | 0.00 | 63 | 1024.0 |
| 20260508150722 | 53 | 160 | 1.0 | 1.0 | 0.00 | 0.00 | 0.00 | 64 | 1024.0 |
| 20260508150219 | 52 | 160 | 2.0 | 2.0 | 0.00 | 0.00 | 0.00 | 67 | 1024.0 |
| 20260508145715 | 52 | 176 | 0.0 | 0.0 | 0.00 | 0.00 | 0.00 | 68 | 1023.9 |
| 20260508145211 | 52 | 179 | 1.0 | 1.0 | 0.00 | 0.00 | 0.00 | 69 | 1024.0 |
| 20260508144709 | 52 | 180 | 0.0 | 0.0 | 0.00 | 0.00 | 0.00 | 75 | 1024.0 |
| 20260508144206 | 52 | 208 | 0.0 | 0.0 | 0.00 | 0.00 | 0.00 | 74 | 1023.8 |
| 20260508143704 | 51 | 208 | 0.0 | 0.0 | 0.00 | 0.00 | 0.00 | 77 | 1024.0 |
| 20260508143201 | 50 | 217 | 0.0 | 0.0 | 0.00 | 0.00 | 0.00 | 82 | 1024.0 |
| 20260508142657 | 48 | 216 | 0.0 | 0.0 | 0.00 | 0.00 | 0.00 | 90 | 1024.1 |
| 20260508142154 | 47 | 204 | 0.0 | 0.0 | 0.00 | 0.00 | 0.00 | 92 | 1024.2 |
| 20260508141650 | 46 | 208 | 0.0 | 0.0 | 0.00 | 0.00 | 0.00 | 94 | 1024.1 |
| 20260508141148 | 45 | 206 | 0.0 | 0.0 | 0.00 | 0.00 | 0.00 | 94 | 1024.3 |
| 20260508140645 | 44 | 202 | 1.0 | 1.0 | 0.00 | 0.00 | 0.00 | 95 | 1024.1 |
| 20260508140142 | 43 | 196 | 1.0 | 1.0 | 0.00 | 0.00 | 0.00 | 95 | 1024.4 |
| 20260508135638 | 43 | 188 | 1.0 | 1.0 | 0.00 | 0.00 | 0.00 | 95 | 1024.2 |
| 20260508135133 | 43 | 216 | 0.0 | 0.0 | 0.00 | 0.00 | 0.00 | 95 | 1024.2 |
| 20260508134630 | 42 | 219 | 0.0 | 0.0 | 0.00 | 0.00 | 0.00 | 95 | 1024.1 |
| 20260508134128 | 41 | 220 | 0.0 | 0.0 | 0.00 | 0.00 | 0.00 | 95 | 1024.2 |
| 20260508133624 | 40 | 220 | 0.0 | 0.0 | 0.00 | 0.00 | 0.00 | 95 | 1024.0 |
| 20260508133121 | 39 | 220 | 0.0 | 0.0 | 0.00 | 0.00 | 0.00 | 95 | 1024.0 |
| 20260508132619 | 39 | 219 | 0.0 | 0.0 | 0.00 | 0.00 | 0.00 | 95 | 1024.1 |
| 20260508132116 | 39 | 217 | 0.0 | 0.0 | 0.00 | 0.00 | 0.00 | 95 | 1024.0 |
| 20260508131612 | 39 | 217 | 0.0 | 0.0 | 0.00 | 0.00 | 0.00 | 95 | 1024.1 |
| 20260508131108 | 38 | 211 | 0.0 | 0.0 | 0.00 | 0.00 | 0.00 | 95 | 1024.1 |
| 20260508130605 | 37 | 236 | 0.0 | 0.0 | 0.00 | 0.00 | 0.00 | 95 | 1024.0 |
| 20260508125557 | 36 | 242 | 0.0 | 0.0 | 0.00 | 0.00 | 0.00 | 95 | 1023.9 |
| 20260508125055 | 36 | 248 | 0.0 | 0.0 | 0.00 | 0.00 | 0.00 | 95 | 1024.1 |
| 20260508124553 | 35 | 270 | 0.0 | 0.0 | 0.00 | 0.00 | 0.00 | 95 | 1023.8 |
| 20260508124049 | 35 | 233 | 0.0 | 0.0 | 0.00 | 0.00 | 0.00 | 94 | 1023.8 |
| 20260508123548 | 35 | 232 | 0.0 | 0.0 | 0.00 | 0.00 | 0.00 | 94 | 1023.8 |
| 20260508123045 | 35 | 250 | 0.0 | 0.0 | 0.00 | 0.00 | 0.00 | 94 | 1023.9 |
| 20260508122541 | 35 | 257 | 0.0 | 0.0 | 0.00 | 0.00 | 0.00 | 94 | 1023.8 |
| 20260508122038 | 36 | 264 | 0.0 | 1.0 | 0.00 | 0.00 | 0.00 | 94 | 1023.8 |
| 20260508121537 | 36 | 222 | 0.0 | 0.0 | 0.00 | 0.00 | 0.00 | 94 | 1023.6 |
| 20260508121034 | 36 | 222 | 0.0 | 0.0 | 0.00 | 0.00 | 0.00 | 94 | 1023.8 |
| 20260508120531 | 37 | 222 | 0.0 | 0.0 | 0.00 | 0.00 | 0.00 | 94 | 1023.8 |
| 20260508120030 | 37 | 214 | 0.0 | 0.0 | 0.00 | 0.00 | 0.00 | 94 | 1023.6 |
| 20260508115527 | 37 | 212 | 0.0 | 0.0 | 0.00 | 0.00 | 0.00 | 94 | 1023.7 |
| 20260508115023 | 37 | 214 | 0.0 | 0.0 | 0.00 | 0.00 | 0.00 | 94 | 1023.4 |
| 20260508114520 | 37 | 191 | 2.0 | 2.0 | 0.00 | 0.00 | 0.00 | 94 | 1023.6 |
| 20260508114017 | 36 | 181 | 1.0 | 1.0 | 0.00 | 0.00 | 0.00 | 94 | 1023.7 |
| 20260508113514 | 37 | 250 | 1.0 | 1.0 | 0.00 | 0.00 | 0.00 | 94 | 1023.3 |
| 20260508113012 | 36 | 241 | 0.0 | 0.0 | 0.00 | 0.00 | 0.00 | 94 | 1023.4 |
| 20260508112508 | 37 | 243 | 0.0 | 0.0 | 0.00 | 0.00 | 0.00 | 94 | 1023.4 |
| 20260508112005 | 37 | 242 | 0.0 | 0.0 | 0.00 | 0.00 | 0.00 | 94 | 1023.6 |
| 20260508111502 | 38 | 216 | 0.0 | 0.0 | 0.00 | 0.00 | 0.00 | 94 | 1023.4 |
| 20260508110959 | 37 | 248 | 0.0 | 0.0 | 0.00 | 0.00 | 0.00 | 94 | 1023.6 |
| 20260508110457 | 37 | 248 | 0.0 | 0.0 | 0.00 | 0.00 | 0.00 | 94 | 1023.4 |
| 20260508105956 | 37 | 233 | 0.0 | 0.0 | 0.00 | 0.00 | 0.00 | 94 | 1023.4 |
| 20260508105453 | 37 | 251 | 0.0 | 0.0 | 0.00 | 0.00 | 0.00 | 93 | 1023.6 |
| 20260508104950 | 37 | 266 | 0.0 | 0.0 | 0.00 | 0.00 | 0.00 | 93 | 1023.2 |
| 20260508104448 | 37 | 233 | 0.0 | 0.0 | 0.00 | 0.00 | 0.00 | 93 | 1023.4 |
| 20260508103944 | 37 | 228 | 0.0 | 0.0 | 0.00 | 0.00 | 0.00 | 93 | 1023.3 |
| 20260508103441 | 37 | 228 | 0.0 | 0.0 | 0.00 | 0.00 | 0.00 | 93 | 1023.4 |
| 20260508102938 | 37 | 228 | 0.0 | 0.0 | 0.00 | 0.00 | 0.00 | 93 | 1023.6 |
| 20260508102437 | 37 | 229 | 0.0 | 0.0 | 0.00 | 0.00 | 0.00 | 93 | 1023.3 |
| 20260508101933 | 38 | 205 | 0.0 | 0.0 | 0.00 | 0.00 | 0.00 | 93 | 1023.2 |
| 20260508101431 | 38 | 199 | 0.0 | 0.0 | 0.00 | 0.00 | 0.00 | 93 | 1023.2 |
| 20260508100928 | 39 | 199 | 0.0 | 1.0 | 0.00 | 0.00 | 0.00 | 93 | 1023.1 |
| 20260508100427 | 39 | 209 | 1.0 | 1.0 | 0.00 | 0.00 | 0.00 | 93 | 1023.2 |
| 20260508095922 | 38 | 210 | 0.0 | 0.0 | 0.00 | 0.00 | 0.00 | 93 | 1023.1 |
| 20260508095420 | 38 | 210 | 0.0 | 0.0 | 0.00 | 0.00 | 0.00 | 92 | 1023.0 |
| 20260508094916 | 39 | 213 | 0.0 | 1.0 | 0.00 | 0.00 | 0.00 | 92 | 1022.9 |
| 20260508094413 | 39 | 228 | 0.0 | 0.0 | 0.00 | 0.00 | 0.00 | 92 | 1023.1 |
| 20260508093910 | 39 | 236 | 0.0 | 0.0 | 0.00 | 0.00 | 0.00 | 92 | 1022.9 |
| 20260508093408 | 40 | 224 | 0.0 | 0.0 | 0.00 | 0.00 | 0.00 | 91 | 1023.0 |
| 20260508092905 | 41 | 225 | 0.0 | 0.0 | 0.00 | 0.00 | 0.00 | 92 | 1022.9 |
| 20260508092403 | 41 | 148 | 0.0 | 0.0 | 0.00 | 0.00 | 0.00 | 92 | 1023.1 |
| 20260508091901 | 39 | 212 | 0.0 | 0.0 | 0.00 | 0.00 | 0.00 | 92 | 1023.0 |
| 20260508091357 | 40 | 253 | 0.0 | 0.0 | 0.00 | 0.00 | 0.00 | 91 | 1023.1 |
| 20260508090855 | 40 | 253 | 0.0 | 0.0 | 0.00 | 0.00 | 0.00 | 91 | 1022.8 |
| 20260508090354 | 39 | 262 | 0.0 | 0.0 | 0.00 | 0.00 | 0.00 | 91 | 1022.8 |
| 20260508085849 | 40 | 214 | 0.0 | 1.0 | 0.00 | 0.00 | 0.00 | 90 | 1022.8 |
| 20260508085346 | 41 | 220 | 0.0 | 0.0 | 0.00 | 0.00 | 0.00 | 90 | 1023.0 |
| 20260508084842 | 41 | 214 | 1.0 | 1.0 | 0.00 | 0.00 | 0.00 | 90 | 1022.8 |
| 20260508084339 | 41 | 239 | 0.0 | 0.0 | 0.00 | 0.00 | 0.00 | 90 | 1022.7 |
| 20260508083837 | 40 | 282 | 0.0 | 0.0 | 0.00 | 0.00 | 0.00 | 89 | 1022.8 |
| 20260508083335 | 40 | 251 | 1.0 | 1.0 | 0.00 | 0.00 | 0.00 | 88 | 1023.0 |
| 20260508082834 | 42 | 249 | 0.0 | 0.0 | 0.00 | 0.00 | 0.00 | 88 | 1022.8 |
| 20260508082332 | 42 | 212 | 0.0 | 0.0 | 0.00 | 0.00 | 0.00 | 88 | 1022.9 |
| 20260508081829 | 42 | 229 | 0.0 | 0.0 | 0.00 | 0.00 | 0.00 | 87 | 1022.8 |
| 20260508081326 | 43 | 226 | 1.0 | 2.0 | 0.00 | 0.00 | 0.00 | 87 | 1022.9 |
| 20260508080823 | 44 | 149 | 0.0 | 1.0 | 0.00 | 0.00 | 0.00 | 87 | 1023.0 |
| 20260508080321 | 43 | 198 | 0.0 | 0.0 | 0.00 | 0.00 | 0.00 | 87 | 1022.8 |
| 20260508075817 | 43 | 230 | 0.0 | 0.0 | 0.00 | 0.00 | 0.00 | 86 | 1022.7 |
| 20260508075314 | 43 | 211 | 0.0 | 0.0 | 0.00 | 0.00 | 0.00 | 86 | 1022.8 |
| 20260508074812 | 42 | 231 | 0.0 | 0.0 | 0.00 | 0.00 | 0.00 | 86 | 1022.8 |
| 20260508074309 | 43 | 240 | 0.0 | 0.0 | 0.00 | 0.00 | 0.00 | 85 | 1022.8 |
| 20260508073806 | 43 | 212 | 0.0 | 0.0 | 0.00 | 0.00 | 0.00 | 85 | 1022.9 |
| 20260508073304 | 45 | 234 | 0.0 | 0.0 | 0.00 | 0.00 | 0.00 | 84 | 1022.5 |
| 20260508072759 | 43 | 210 | 0.0 | 0.0 | 0.00 | 0.00 | 0.00 | 85 | 1022.7 |
| 20260508072256 | 44 | 236 | 1.0 | 2.0 | 0.00 | 0.00 | 0.00 | 84 | 1022.7 |
| 20260508071754 | 44 | 218 | 0.0 | 0.0 | 0.00 | 0.00 | 0.00 | 83 | 1022.7 |
| 20260508071252 | 44 | 236 | 0.0 | 0.0 | 0.00 | 0.00 | 0.00 | 83 | 1022.3 |
| 20260508070749 | 46 | 258 | 1.0 | 1.0 | 0.00 | 0.00 | 0.00 | 80 | 1022.5 |
| 20260508070248 | 46 | 201 | 0.0 | 0.0 | 0.00 | 0.00 | 0.00 | 79 | 1022.5 |
| 20260508065744 | 47 | 179 | 1.0 | 1.0 | 0.00 | 0.00 | 0.00 | 79 | 1022.7 |
| 20260508065242 | 46 | 150 | 0.0 | 1.0 | 0.00 | 0.00 | 0.00 | 79 | 1022.6 |
| 20260508064740 | 46 | 208 | 0.0 | 0.0 | 0.00 | 0.00 | 0.00 | 77 | 1022.2 |
| 20260508064238 | 47 | 221 | 0.0 | 0.0 | 0.00 | 0.00 | 0.00 | 75 | 1022.6 |
| 20260508063735 | 48 | 220 | 1.0 | 1.0 | 0.00 | 0.00 | 0.00 | 74 | 1022.1 |
| 20260508063233 | 48 | 177 | 1.0 | 1.0 | 0.00 | 0.00 | 0.00 | 74 | 1022.5 |
| 20260508062730 | 48 | 235 | 1.0 | 2.0 | 0.00 | 0.00 | 0.00 | 75 | 1022.3 |
| 20260508062227 | 48 | 213 | 0.0 | 0.0 | 0.00 | 0.00 | 0.00 | 74 | 1021.9 |
| 20260508061724 | 48 | 350 | 2.0 | 2.0 | 0.00 | 0.00 | 0.00 | 75 | 1022.2 |
| 20260508061221 | 50 | 207 | 0.0 | 0.0 | 0.00 | 0.00 | 0.00 | 73 | 1022.1 |
| 20260508060718 | 47 | 146 | 1.0 | 1.0 | 0.00 | 0.00 | 0.00 | 75 | 1022.0 |
| 20260508060216 | 49 | 254 | 1.0 | 1.0 | 0.00 | 0.00 | 0.00 | 74 | 1021.9 |
| 20260508055711 | 50 | 155 | 2.0 | 2.0 | 0.00 | 0.00 | 0.00 | 71 | 1022.2 |
| 20260508055208 | 48 | 277 | 1.0 | 1.0 | 0.00 | 0.00 | 0.00 | 74 | 1022.2 |
| 20260508054704 | 50 | 160 | 2.0 | 2.0 | 0.00 | 0.00 | 0.00 | 72 | 1022.1 |
| 20260508054202 | 48 | 358 | 3.0 | 3.0 | 0.00 | 0.00 | 0.00 | 73 | 1022.1 |
| 20260508053659 | 48 | 151 | 2.0 | 2.0 | 0.00 | 0.00 | 0.00 | 74 | 1021.8 |
| 20260508053156 | 51 | 217 | 2.0 | 2.0 | 0.00 | 0.00 | 0.00 | 70 | 1021.9 |
| 20260508052654 | 50 | 126 | 1.0 | 2.0 | 0.00 | 0.00 | 0.00 | 69 | 1021.8 |
| 20260508052150 | 50 | 235 | 0.0 | 0.0 | 0.00 | 0.00 | 0.00 | 70 | 1021.7 |
| 20260508051647 | 49 | 209 | 0.0 | 1.0 | 0.00 | 0.00 | 0.00 | 70 | 1021.8 |
| 20260508051142 | 51 | 186 | 0.0 | 0.0 | 0.00 | 0.00 | 0.00 | 67 | 1021.7 |
| 20260508050638 | 51 | 139 | 2.0 | 2.0 | 0.00 | 0.00 | 0.00 | 69 | 1021.3 |
| 20260508050136 | 51 | 299 | 1.0 | 1.0 | 0.00 | 0.00 | 0.00 | 69 | 1021.5 |
| 20260508045632 | 50 | 161 | 2.0 | 2.0 | 0.00 | 0.00 | 0.00 | 70 | 1021.6 |
| 20260508045130 | 52 | 348 | 4.0 | 5.0 | 0.00 | 0.00 | 0.00 | 69 | 1021.5 |
| 20260508044627 | 51 | 194 | 0.0 | 0.0 | 0.00 | 0.00 | 0.00 | 68 | 1021.5 |
| 20260508044123 | 53 | 289 | 3.0 | 3.0 | 0.00 | 0.00 | 0.00 | 69 | 1021.6 |
| 20260508043620 | 52 | 118 | 0.0 | 1.0 | 0.00 | 0.00 | 0.00 | 65 | 1021.6 |
| 20260508043118 | 54 | 286 | 2.0 | 2.0 | 0.00 | 0.00 | 0.00 | 65 | 1021.5 |
| 20260508042614 | 54 | 135 | 2.0 | 2.0 | 0.00 | 0.00 | 0.00 | 60 | 1021.3 |
| 20260508042111 | 52 | 157 | 2.0 | 2.0 | 0.00 | 0.00 | 0.00 | 64 | 1021.7 |
| 20260508041607 | 52 | 207 | 1.0 | 1.0 | 0.00 | 0.00 | 0.00 | 68 | 1021.2 |
| 20260508041104 | 53 | 121 | 3.0 | 3.0 | 0.00 | 0.00 | 0.00 | 65 | 1021.3 |
| 20260508040600 | 53 | 186 | 1.0 | 1.0 | 0.00 | 0.00 | 0.00 | 65 | 1021.2 |
| 20260508040059 | 52 | 101 | 1.0 | 1.0 | 0.00 | 0.00 | 0.00 | 66 | 1021.5 |
| 20260508035555 | 52 | 253 | 0.0 | 0.0 | 0.00 | 0.00 | 0.00 | 66 | 1021.2 |
| 20260508035053 | 52 | 166 | 1.0 | 2.0 | 0.00 | 0.00 | 0.00 | 66 | 1021.1 |
| 20260508034549 | 54 | 191 | 1.0 | 1.0 | 0.00 | 0.00 | 0.00 | 65 | 1021.1 |
| 20260508034046 | 53 | 174 | 0.0 | 0.0 | 0.00 | 0.00 | 0.00 | 63 | 1020.9 |
| 20260508033544 | 51 | 44 | 2.0 | 2.0 | 0.00 | 0.00 | 0.00 | 68 | 1020.9 |
| 20260508033042 | 54 | 152 | 1.0 | 1.0 | 0.00 | 0.00 | 0.00 | 63 | 1020.8 |
| 20260508032538 | 54 | 212 | 0.0 | 0.0 | 0.00 | 0.00 | 0.00 | 63 | 1020.8 |
| 20260508032036 | 54 | 189 | 0.0 | 1.0 | 0.00 | 0.00 | 0.00 | 63 | 1020.6 |
| 20260508031533 | 57 | 80 | 3.0 | 3.0 | 0.00 | 0.00 | 0.00 | 55 | 1020.5 |
| 20260508031029 | 58 | 70 | 2.0 | 2.0 | 0.00 | 0.00 | 0.00 | 56 | 1020.4 |
| 20260508030525 | 58 | 70 | 1.0 | 1.0 | 0.00 | 0.00 | 0.00 | 51 | 1020.7 |
| 20260508030024 | 58 | 210 | 0.0 | 0.0 | 0.00 | 0.00 | 0.00 | 54 | 1020.5 |
| 20260508025519 | 61 | 263 | 2.0 | 2.0 | 0.00 | 0.00 | 0.00 | 47 | 1020.2 |
| 20260508025016 | 63 | 216 | 0.0 | 0.0 | 0.00 | 0.00 | 0.00 | 41 | 1020.6 |
| 20260508024512 | 62 | 272 | 0.0 | 1.0 | 0.00 | 0.00 | 0.00 | 47 | 1020.5 |
| 20260508024009 | 62 | 122 | 0.0 | 1.0 | 0.00 | 0.00 | 0.00 | 46 | 1020.2 |
| 20260508023506 | 62 | 184 | 0.0 | 0.0 | 0.00 | 0.00 | 0.00 | 44 | 1020.0 |
| 20260508023004 | 63 | 223 | 0.0 | 0.0 | 0.00 | 0.00 | 0.00 | 47 | 1020.1 |
| 20260508022459 | 64 | 206 | 1.0 | 1.0 | 0.00 | 0.00 | 0.00 | 42 | 1020.1 |
| 20260508021955 | 64 | 206 | 0.0 | 0.0 | 0.00 | 0.00 | 0.00 | 41 | 1019.9 |
| 20260508021452 | 65 | 238 | 0.0 | 0.0 | 0.00 | 0.00 | 0.00 | 40 | 1019.9 |
| 20260508020948 | 66 | 247 | 0.0 | 0.0 | 0.00 | 0.00 | 0.00 | 39 | 1019.9 |
| 20260508020446 | 67 | 239 | 0.0 | 0.0 | 0.00 | 0.00 | 0.00 | 38 | 1019.9 |
| 20260508015943 | 68 | 256 | 1.0 | 2.0 | 0.00 | 0.00 | 0.00 | 38 | 1019.8 |
| 20260508015441 | 69 | 262 | 2.0 | 2.0 | 0.00 | 0.00 | 0.00 | 37 | 1020.0 |
| 20260508014937 | 70 | 246 | 4.0 | 6.0 | 0.00 | 0.00 | 0.00 | 35 | 1020.0 |
| 20260508014434 | 71 | 223 | 3.0 | 3.0 | 0.00 | 0.00 | 0.00 | 36 | 1019.9 |
| 20260508013930 | 71 | 243 | 2.0 | 3.0 | 0.00 | 0.00 | 0.00 | 35 | 1020.0 |
| 20260508013426 | 71 | 269 | 3.0 | 3.0 | 0.00 | 0.00 | 0.00 | 36 | 1019.9 |
| 20260508012924 | 71 | 271 | 3.0 | 3.0 | 0.00 | 0.00 | 0.00 | 36 | 1020.1 |
| 20260508012420 | 72 | 263 | 5.0 | 6.0 | 0.00 | 0.00 | 0.00 | 35 | 1019.9 |
| 20260508011918 | 72 | 300 | 4.0 | 6.0 | 0.00 | 0.00 | 0.00 | 34 | 1019.9 |
| 20260508011416 | 72 | 283 | 4.0 | 5.0 | 0.00 | 0.00 | 0.00 | 34 | 1019.9 |
| 20260508010913 | 72 | 239 | 4.0 | 5.0 | 0.00 | 0.00 | 0.00 | 34 | 1020.1 |
| 20260508010410 | 72 | 261 | 5.0 | 7.0 | 0.00 | 0.00 | 0.00 | 33 | 1020.0 |
| 20260508005907 | 72 | 277 | 7.0 | 10.0 | 0.00 | 0.00 | 0.00 | 34 | 1019.9 |
| 20260508005404 | 72 | 254 | 7.0 | 10.0 | 0.00 | 0.00 | 0.00 | 33 | 1019.9 |
| 20260508004900 | 73 | 253 | 4.0 | 5.0 | 0.00 | 0.00 | 0.00 | 35 | 1019.7 |
| 20260508004356 | 73 | 282 | 4.0 | 5.0 | 0.00 | 0.00 | 0.00 | 33 | 1019.8 |
| 20260508003853 | 73 | 251 | 1.0 | 2.0 | 0.00 | 0.00 | 0.00 | 37 | 1019.9 |
| 20260508003350 | 73 | 338 | 9.0 | 13.0 | 0.00 | 0.00 | 0.00 | 35 | 1019.9 |
| 20260508002848 | 73 | 311 | 6.0 | 7.0 | 0.00 | 0.00 | 0.00 | 36 | 1019.7 |
| 20260508002343 | 73 | 261 | 4.0 | 6.0 | 0.00 | 0.00 | 0.00 | 35 | 1020.0 |
| 20260508001840 | 73 | 303 | 6.0 | 7.0 | 0.00 | 0.00 | 0.00 | 34 | 1019.9 |
| 20260508001336 | 73 | 281 | 4.0 | 5.0 | 0.00 | 0.00 | 0.00 | 34 | 1019.9 |
| 20260508000832 | 74 | 320 | 4.0 | 5.0 | 0.00 | 0.00 | 0.00 | 34 | 1019.8 |
| 20260508000329 | 73 | 288 | 4.0 | 5.0 | 0.00 | 0.00 | 0.00 | 36 | 1019.6 |
| 20260507235825 | 73 | 344 | 9.0 | 11.0 | 0.00 | 0.00 | 0.00 | 35 | 1019.7 |
| 20260507235323 | 74 | 5 | 7.0 | 8.0 | 0.00 | 0.00 | 0.00 | 35 | 1019.7 |
| 20260507234820 | 74 | 290 | 5.0 | 6.0 | 0.00 | 0.00 | 0.00 | 32 | 1019.6 |
| 20260507234317 | 73 | 287 | 4.0 | 5.0 | 0.00 | 0.00 | 0.00 | 34 | 1019.5 |